Year,Month,Day,Hour,Minute,Value (Times are PST for temperature in C)
2011,07,24,08,20,19.40
2011,07,24,08,21,19.60
2011,07,24,08,22,19.60
2011,07,24,08,23,19.70
2011,07,24,08,24,19.70
2011,07,24,08,25,19.80
2011,07,24,08,26,19.90
2011,07,24,08,27,20.00
2011,07,24,08,28,20.10
2011,07,24,08,29,20.10
2011,07,24,08,30,20.20
2011,07,24,08,31,20.20
2011,07,24,08,32,20.30
2011,07,24,08,33,20.40
2011,07,24,08,34,20.40
2011,07,24,08,35,20.40
2011,07,24,08,36,20.50
2011,07,24,08,37,20.60
2011,07,24,08,38,20.60
2011,07,24,08,39,20.70
2011,07,24,08,40,20.80
2011,07,24,08,41,21.00
2011,07,24,08,42,21.00
2011,07,24,08,43,21.20
2011,07,24,08,44,21.20
2011,07,24,08,45,21.20
2011,07,24,08,46,21.10
2011,07,24,08,47,21.10
2011,07,24,08,48,21.10
2011,07,24,08,49,21.00
2011,07,24,08,50,20.90
2011,07,24,08,51,20.80
2011,07,24,08,52,20.80
2011,07,24,08,53,20.80
2011,07,24,08,54,20.80
2011,07,24,08,55,20.80
2011,07,24,08,56,20.80
2011,07,24,08,57,20.80
2011,07,24,08,58,20.80
2011,07,24,08,59,20.80
2011,07,24,09,00,20.90
2011,07,24,09,01,20.90
2011,07,24,09,02,20.90
2011,07,24,09,03,20.90
2011,07,24,09,04,20.90
2011,07,24,09,05,20.90
2011,07,24,09,06,21.00
2011,07,24,09,07,20.90
2011,07,24,09,08,20.90
2011,07,24,09,09,20.90
2011,07,24,09,10,20.90
2011,07,24,09,11,21.00
2011,07,24,09,12,21.00
2011,07,24,09,13,21.00
2011,07,24,09,14,21.00
2011,07,24,09,15,21.00
2011,07,24,09,16,21.00
2011,07,24,09,17,21.00
2011,07,24,09,18,21.00
2011,07,24,09,19,21.00
2011,07,24,09,20,20.90
2011,07,24,09,21,20.90
2011,07,24,09,22,20.80
2011,07,24,09,23,20.80
2011,07,24,09,24,20.90
2011,07,24,09,25,20.90
2011,07,24,09,26,20.90
2011,07,24,09,27,20.90
2011,07,24,09,28,20.90
2011,07,24,09,29,20.90
2011,07,24,09,30,20.90
2011,07,24,09,31,20.90
2011,07,24,09,32,20.90
2011,07,24,09,33,20.90
2011,07,24,09,34,21.00
2011,07,24,09,35,21.00
2011,07,24,09,36,21.00
2011,07,24,09,37,21.10
2011,07,24,09,38,21.10
2011,07,24,09,39,21.10
2011,07,24,09,40,21.20
2011,07,24,09,41,21.20
2011,07,24,09,42,21.30
2011,07,24,09,43,21.30
2011,07,24,09,44,21.30
2011,07,24,09,45,21.30
2011,07,24,09,46,21.30
2011,07,24,09,47,21.40
2011,07,24,09,48,21.50
2011,07,24,09,49,21.60
2011,07,24,09,50,21.60
2011,07,24,09,51,21.60
2011,07,24,09,52,21.60
2011,07,24,09,53,21.60
2011,07,24,09,54,21.60
2011,07,24,09,55,21.60
2011,07,24,09,56,21.60
2011,07,24,09,57,21.60
2011,07,24,09,58,21.60
2011,07,24,09,59,21.60
2011,07,24,10,00,21.70
2011,07,24,10,01,21.70
2011,07,24,10,02,21.90
2011,07,24,10,03,21.90
2011,07,24,10,04,22.00
2011,07,24,10,05,22.00
2011,07,24,10,06,22.00
2011,07,24,10,07,22.00
2011,07,24,10,08,22.00
2011,07,24,10,09,22.00
2011,07,24,10,10,22.10
2011,07,24,10,11,22.10
2011,07,24,10,12,22.20
2011,07,24,10,13,22.20
2011,07,24,10,14,22.20
2011,07,24,10,15,22.20
2011,07,24,10,16,22.20
2011,07,24,10,17,22.30
2011,07,24,10,18,22.30
2011,07,24,10,19,22.40
2011,07,24,10,20,22.40
2011,07,24,10,21,22.40
2011,07,24,10,22,22.50
2011,07,24,10,23,22.40
2011,07,24,10,24,22.40
2011,07,24,10,25,22.40
2011,07,24,10,26,22.30
2011,07,24,10,27,22.30
2011,07,24,10,28,22.30
2011,07,24,10,29,22.40
2011,07,24,10,30,22.40
2011,07,24,10,31,22.40
2011,07,24,10,32,22.50
2011,07,24,10,33,22.50
2011,07,24,10,34,22.50
2011,07,24,10,35,22.50
2011,07,24,10,36,22.50
2011,07,24,10,37,22.30
2011,07,24,10,38,22.30
2011,07,24,10,39,22.30
2011,07,24,10,40,22.30
2011,07,24,10,41,22.20
2011,07,24,10,42,22.10
2011,07,24,10,43,22.00
2011,07,24,10,44,21.90
2011,07,24,10,45,21.70
2011,07,24,10,46,21.60
2011,07,24,10,47,21.40
2011,07,24,10,48,21.30
2011,07,24,10,49,21.30
2011,07,24,10,50,21.20
2011,07,24,10,51,21.20
2011,07,24,10,52,21.20
2011,07,24,10,53,21.30
2011,07,24,10,54,21.40
2011,07,24,10,55,21.60
2011,07,24,10,56,21.70
2011,07,24,10,57,21.80
2011,07,24,10,58,21.80
2011,07,24,10,59,21.80
2011,07,24,11,00,21.70
2011,07,24,11,01,21.60
2011,07,24,11,02,21.40
2011,07,24,11,03,21.30
2011,07,24,11,04,21.30
2011,07,24,11,05,21.20
2011,07,24,11,06,21.10
2011,07,24,11,07,21.00
2011,07,24,11,08,21.00
2011,07,24,11,09,21.10
2011,07,24,11,10,21.20
2011,07,24,11,11,21.30
2011,07,24,11,12,21.30
2011,07,24,11,13,21.30
2011,07,24,11,14,21.10
2011,07,24,11,15,20.80
2011,07,24,11,16,20.50
2011,07,24,11,17,20.20
2011,07,24,11,18,20.20
2011,07,24,11,19,20.10
2011,07,24,11,20,20.00
2011,07,24,11,21,19.90
2011,07,24,11,22,19.90
2011,07,24,11,23,19.90
2011,07,24,11,24,19.90
2011,07,24,11,25,19.90
2011,07,24,11,26,19.90
2011,07,24,11,27,20.10
2011,07,24,11,28,20.20
2011,07,24,11,29,20.20
2011,07,24,11,30,20.30
2011,07,24,11,31,20.50
2011,07,24,11,32,20.70
2011,07,24,11,33,20.90
2011,07,24,11,34,21.00
2011,07,24,11,35,21.20
2011,07,24,11,36,21.40
2011,07,24,11,37,21.60
2011,07,24,11,38,21.90
2011,07,24,11,39,22.10
2011,07,24,11,40,22.20
2011,07,24,11,41,22.40
2011,07,24,11,42,22.50
2011,07,24,11,43,22.70
2011,07,24,11,44,22.80
2011,07,24,11,45,23.00
2011,07,24,11,46,23.10
2011,07,24,11,47,23.20
2011,07,24,11,48,23.30
2011,07,24,11,49,23.30
2011,07,24,11,50,23.30
2011,07,24,11,51,23.30
2011,07,24,11,52,23.30
2011,07,24,11,53,23.40
2011,07,24,11,54,23.40
2011,07,24,11,55,23.60
2011,07,24,11,56,23.60
2011,07,24,11,57,23.80
2011,07,24,11,58,23.80
2011,07,24,11,59,23.90
2011,07,24,12,00,23.90
2011,07,24,12,01,23.80
2011,07,24,12,02,23.80
2011,07,24,12,03,23.70
2011,07,24,12,04,23.70
2011,07,24,12,05,23.70
2011,07,24,12,06,23.70
2011,07,24,12,07,23.70
2011,07,24,12,08,23.70
2011,07,24,12,09,23.70
2011,07,24,12,10,23.70
2011,07,24,12,11,23.70
2011,07,24,12,12,23.70
2011,07,24,12,13,23.70
2011,07,24,12,14,23.70
2011,07,24,12,15,23.70
2011,07,24,12,16,23.70
2011,07,24,12,17,23.80
2011,07,24,12,18,23.80
2011,07,24,12,19,23.80
2011,07,24,12,20,23.80
2011,07,24,12,21,23.80
2011,07,24,12,22,23.80
2011,07,24,12,23,23.70
2011,07,24,12,24,23.70
2011,07,24,12,25,23.70
2011,07,24,12,26,23.80
2011,07,24,12,27,23.80
2011,07,24,12,28,23.80
2011,07,24,12,29,23.90
2011,07,24,12,30,24.10
2011,07,24,12,31,24.10
2011,07,24,12,32,23.90
2011,07,24,12,33,23.70
2011,07,24,12,34,23.60
2011,07,24,12,35,23.50
2011,07,24,12,36,23.40
2011,07,24,12,37,23.50
2011,07,24,12,38,23.60
2011,07,24,12,39,23.70
2011,07,24,12,40,23.70
2011,07,24,12,41,23.70
2011,07,24,12,42,23.60
2011,07,24,12,43,23.60
2011,07,24,12,44,23.70
2011,07,24,12,45,23.70
2011,07,24,12,46,23.80
2011,07,24,12,47,23.90
2011,07,24,12,48,24.10
2011,07,24,12,49,24.10
2011,07,24,12,50,24.10
2011,07,24,12,51,24.10
2011,07,24,12,52,24.10
2011,07,24,12,53,24.10
2011,07,24,12,54,23.90
2011,07,24,12,55,23.90
2011,07,24,12,56,24.00
2011,07,24,12,57,24.10
2011,07,24,12,58,24.10
2011,07,24,12,59,24.30
2011,07,24,13,00,24.40
2011,07,24,13,01,24.40
2011,07,24,13,02,24.40
2011,07,24,13,03,24.20
2011,07,24,13,04,24.10
2011,07,24,13,05,23.90
2011,07,24,13,06,23.70
2011,07,24,13,07,23.70
2011,07,24,13,08,23.60
2011,07,24,13,09,23.50
2011,07,24,13,10,23.40
2011,07,24,13,11,23.50
2011,07,24,13,12,23.60
2011,07,24,13,13,23.80
2011,07,24,13,14,23.90
2011,07,24,13,15,24.10
2011,07,24,13,16,24.30
2011,07,24,13,17,24.50
2011,07,24,13,18,24.60
2011,07,24,13,19,24.70
2011,07,24,13,20,24.70
2011,07,24,13,21,24.80
2011,07,24,13,22,24.70
2011,07,24,13,23,24.60
2011,07,24,13,24,24.60
2011,07,24,13,25,24.60
2011,07,24,13,26,24.50
2011,07,24,13,27,24.50
2011,07,24,13,28,24.50
2011,07,24,13,29,24.50
2011,07,24,13,30,24.50
2011,07,24,13,31,24.50
2011,07,24,13,32,24.30
2011,07,24,13,33,24.40
2011,07,24,13,34,24.40
2011,07,24,13,35,24.40
2011,07,24,13,36,24.30
2011,07,24,13,37,24.20
2011,07,24,13,38,24.10
2011,07,24,13,39,24.10
2011,07,24,13,40,24.10
2011,07,24,13,41,23.90
2011,07,24,13,42,23.80
2011,07,24,13,43,23.60
2011,07,24,13,44,23.40
2011,07,24,13,45,23.40
2011,07,24,13,46,23.40
2011,07,24,13,47,23.50
2011,07,24,13,48,23.60
2011,07,24,13,49,23.40
2011,07,24,13,50,23.20
2011,07,24,13,51,23.00
2011,07,24,13,52,22.80
2011,07,24,13,53,22.80
2011,07,24,13,54,22.70
2011,07,24,13,55,22.60
2011,07,24,13,56,22.60
2011,07,24,13,57,22.60
2011,07,24,13,58,22.70
2011,07,24,13,59,22.70
2011,07,24,14,00,22.70
2011,07,24,14,01,22.60
2011,07,24,14,02,22.60
2011,07,24,14,03,22.50
2011,07,24,14,04,22.30
2011,07,24,14,05,22.30
2011,07,24,14,06,22.20
2011,07,24,14,07,22.10
2011,07,24,14,08,22.00
2011,07,24,14,09,21.90
2011,07,24,14,10,22.00
2011,07,24,14,11,22.00
2011,07,24,14,12,22.10
2011,07,24,14,13,22.10
2011,07,24,14,14,22.00
2011,07,24,14,15,22.00
2011,07,24,14,16,22.00
2011,07,24,14,17,21.90
2011,07,24,14,18,21.90
2011,07,24,14,19,21.80
2011,07,24,14,20,21.70
2011,07,24,14,21,21.60
2011,07,24,14,22,21.60
2011,07,24,14,23,21.50
2011,07,24,14,24,21.40
2011,07,24,14,25,21.30
2011,07,24,14,26,21.30
2011,07,24,14,27,21.40
2011,07,24,14,28,21.50
2011,07,24,14,29,21.60
2011,07,24,14,30,21.80
2011,07,24,14,31,21.80
2011,07,24,14,32,21.80
2011,07,24,14,33,21.80
2011,07,24,14,34,21.70
2011,07,24,14,35,21.50
2011,07,24,14,36,21.30
2011,07,24,14,37,21.20
2011,07,24,14,38,21.10
2011,07,24,14,39,21.20
2011,07,24,14,40,21.30
2011,07,24,14,41,21.30
2011,07,24,14,42,21.30
2011,07,24,14,43,21.40
2011,07,24,14,44,21.40
2011,07,24,14,45,21.40
2011,07,24,14,46,21.40
2011,07,24,14,47,21.40
2011,07,24,14,48,21.50
2011,07,24,14,49,21.60
2011,07,24,14,50,21.60
2011,07,24,14,51,21.60
2011,07,24,14,52,21.70
2011,07,24,14,53,21.80
2011,07,24,14,54,21.70
2011,07,24,14,55,21.80
2011,07,24,14,56,21.80
2011,07,24,14,57,21.90
2011,07,24,14,58,21.90
2011,07,24,14,59,22.00
2011,07,24,15,00,22.00
2011,07,24,15,01,22.10
2011,07,24,15,02,22.20
2011,07,24,15,03,22.30
2011,07,24,15,04,22.30
2011,07,24,15,05,22.40
2011,07,24,15,06,22.50
2011,07,24,15,07,22.50
2011,07,24,15,08,22.50
2011,07,24,15,09,22.50
2011,07,24,15,10,22.50
2011,07,24,15,11,22.60
2011,07,24,15,12,22.70
2011,07,24,15,13,22.80
2011,07,24,15,14,22.90
2011,07,24,15,15,22.90
2011,07,24,15,16,23.00
2011,07,24,15,17,23.10
2011,07,24,15,18,23.30
2011,07,24,15,19,23.30
2011,07,24,15,20,23.30
2011,07,24,15,21,23.40
2011,07,24,15,22,23.50
2011,07,24,15,23,23.70
2011,07,24,15,24,23.70
2011,07,24,15,25,23.70
2011,07,24,15,26,23.70
2011,07,24,15,27,23.80
2011,07,24,15,28,23.80
2011,07,24,15,29,23.90
2011,07,24,15,30,24.10
2011,07,24,15,31,24.10
2011,07,24,15,32,24.10
2011,07,24,15,33,24.00
2011,07,24,15,34,23.90
2011,07,24,15,35,23.90
2011,07,24,15,36,23.90
2011,07,24,15,37,23.90
2011,07,24,15,38,23.90
2011,07,24,15,39,23.80
2011,07,24,15,40,23.80
2011,07,24,15,41,23.80
2011,07,24,15,42,23.90
2011,07,24,15,43,24.10
2011,07,24,15,44,24.10
2011,07,24,15,45,24.20
2011,07,24,15,46,24.30
2011,07,24,15,47,24.30
2011,07,24,15,48,24.30
2011,07,24,15,49,24.30
2011,07,24,15,50,24.30
2011,07,24,15,51,24.30
2011,07,24,15,52,24.30
2011,07,24,15,53,24.20
2011,07,24,15,54,24.20
2011,07,24,15,55,24.20
2011,07,24,15,56,24.30
2011,07,24,15,57,24.30
2011,07,24,15,58,24.30
2011,07,24,15,59,24.40
2011,07,24,16,00,24.40
2011,07,24,16,01,24.50
2011,07,24,16,02,24.60
2011,07,24,16,03,24.80
2011,07,24,16,04,24.80
2011,07,24,16,05,24.70
2011,07,24,16,06,24.60
2011,07,24,16,07,24.50
2011,07,24,16,08,24.50
2011,07,24,16,09,24.50
2011,07,24,16,10,24.40
2011,07,24,16,11,24.50
2011,07,24,16,12,24.50
2011,07,24,16,13,24.40
2011,07,24,16,14,24.30
2011,07,24,16,15,24.20
2011,07,24,16,16,24.10
2011,07,24,16,17,24.00
2011,07,24,16,18,23.90
2011,07,24,16,19,23.80
2011,07,24,16,20,23.80
2011,07,24,16,21,23.70
2011,07,24,16,22,23.60
2011,07,24,16,23,23.60
2011,07,24,16,24,23.60
2011,07,24,16,25,23.60
2011,07,24,16,26,23.60
2011,07,24,16,27,23.60
2011,07,24,16,28,23.60
2011,07,24,16,29,23.60
2011,07,24,16,30,23.50
2011,07,24,16,31,23.40
2011,07,24,16,32,23.40
2011,07,24,16,33,23.40
2011,07,24,16,34,23.40
2011,07,24,16,35,23.50
2011,07,24,16,36,23.60
2011,07,24,16,37,23.70
2011,07,24,16,38,23.70
2011,07,24,16,39,23.70
2011,07,24,16,40,23.80
2011,07,24,16,41,23.90
2011,07,24,16,42,24.00
2011,07,24,16,43,24.10
2011,07,24,16,44,24.10
2011,07,24,16,45,24.10
2011,07,24,16,46,24.10
2011,07,24,16,47,24.10
2011,07,24,16,48,24.10
2011,07,24,16,49,24.20
2011,07,24,16,50,24.20
2011,07,24,16,51,24.30
2011,07,24,16,52,24.30
2011,07,24,16,53,24.30
2011,07,24,16,54,24.30
2011,07,24,16,55,24.40
2011,07,24,16,56,24.40
2011,07,24,16,57,24.40
2011,07,24,16,58,24.40
2011,07,24,16,59,24.40
2011,07,24,17,00,24.40
2011,07,24,17,01,24.40
2011,07,24,17,02,24.40
2011,07,24,17,03,24.40
2011,07,24,17,04,24.20
2011,07,24,17,05,24.10
2011,07,24,17,06,24.10
2011,07,24,17,07,23.90
2011,07,24,17,08,23.80
2011,07,24,17,09,23.70
2011,07,24,17,10,23.60
2011,07,24,17,11,23.60
2011,07,24,17,12,23.50
2011,07,24,17,13,23.40
2011,07,24,17,14,23.40
2011,07,24,17,15,23.30
2011,07,24,17,16,23.30
2011,07,24,17,17,23.30
2011,07,24,17,18,23.30
2011,07,24,17,19,23.40
2011,07,24,17,20,23.40
2011,07,24,17,21,23.50
2011,07,24,17,22,23.60
2011,07,24,17,23,23.70
2011,07,24,17,24,23.70
2011,07,24,17,25,23.70
2011,07,24,17,26,23.70
2011,07,24,17,27,23.70
2011,07,24,17,28,23.70
2011,07,24,17,29,23.70
2011,07,24,17,30,23.60
2011,07,24,17,31,23.50
2011,07,24,17,32,23.40
2011,07,24,17,33,23.30
2011,07,24,17,34,23.20
2011,07,24,17,35,23.20
2011,07,24,17,36,23.20
2011,07,24,17,37,23.20
2011,07,24,17,38,23.10
2011,07,24,17,39,23.10
2011,07,24,17,40,23.20
2011,07,24,17,41,23.20
2011,07,24,17,42,23.20
2011,07,24,17,43,23.20
2011,07,24,17,44,23.30
2011,07,24,17,45,23.30
2011,07,24,17,46,23.30
2011,07,24,17,47,23.30
2011,07,24,17,48,23.30
2011,07,24,17,49,23.30
2011,07,24,17,50,23.30
2011,07,24,17,51,23.30
2011,07,24,17,52,23.30
2011,07,24,17,53,23.40
2011,07,24,17,54,23.40
2011,07,24,17,55,23.40
2011,07,24,17,56,23.50
2011,07,24,17,57,23.60
2011,07,24,17,58,23.60
2011,07,24,17,59,23.70
2011,07,24,18,00,23.70
2011,07,24,18,01,23.70
2011,07,24,18,02,23.70
2011,07,24,18,03,23.70
2011,07,24,18,04,23.70
2011,07,24,18,05,23.70
2011,07,24,18,06,23.70
2011,07,24,18,07,23.70
2011,07,24,18,08,23.70
2011,07,24,18,09,23.70
2011,07,24,18,10,23.80
2011,07,24,18,11,23.90
2011,07,24,18,12,23.90
2011,07,24,18,13,23.90
2011,07,24,18,14,24.00
2011,07,24,18,15,23.90
2011,07,24,18,16,23.90
2011,07,24,18,17,23.90
2011,07,24,18,18,23.80
2011,07,24,18,19,23.70
2011,07,24,18,20,23.70
2011,07,24,18,21,23.60
2011,07,24,18,22,23.50
2011,07,24,18,23,23.40
2011,07,24,18,24,23.30
2011,07,24,18,25,23.30
2011,07,24,18,26,23.10
2011,07,24,18,27,23.00
2011,07,24,18,28,22.90
2011,07,24,18,29,22.90
2011,07,24,18,30,22.80
2011,07,24,18,31,22.80
2011,07,24,18,32,22.80
2011,07,24,18,33,22.80
2011,07,24,18,34,22.80
2011,07,24,18,35,22.80
2011,07,24,18,36,22.80
2011,07,24,18,37,22.80
2011,07,24,18,38,22.80
2011,07,24,18,39,22.80
2011,07,24,18,40,22.90
2011,07,24,18,41,22.90
2011,07,24,18,42,22.90
2011,07,24,18,43,22.90
2011,07,24,18,44,23.00
2011,07,24,18,45,23.10
2011,07,24,18,46,23.20
2011,07,24,18,47,23.20
2011,07,24,18,48,23.30
2011,07,24,18,49,23.30
2011,07,24,18,50,23.40
2011,07,24,18,51,23.40
2011,07,24,18,52,23.50
2011,07,24,18,53,23.60
2011,07,24,18,54,23.60
2011,07,24,18,55,23.70
2011,07,24,18,56,23.70
2011,07,24,18,57,23.70
2011,07,24,18,58,23.70
2011,07,24,18,59,23.70
2011,07,24,19,00,23.70
2011,07,24,19,01,23.70
2011,07,24,19,02,23.70
2011,07,24,19,03,23.70
2011,07,24,19,04,23.70
2011,07,24,19,05,23.70
2011,07,24,19,06,23.70
2011,07,24,19,07,23.70
2011,07,24,19,08,23.70
2011,07,24,19,09,23.70
2011,07,24,19,10,23.70
2011,07,24,19,11,23.70
2011,07,24,19,12,23.70
2011,07,24,19,13,23.70
2011,07,24,19,14,23.70
2011,07,24,19,15,23.70
2011,07,24,19,16,23.70
2011,07,24,19,17,23.70
2011,07,24,19,18,23.70
2011,07,24,19,19,23.70
2011,07,24,19,20,23.70
2011,07,24,19,21,23.70
2011,07,24,19,22,23.70
2011,07,24,19,23,23.70
2011,07,24,19,24,23.70
2011,07,24,19,25,23.70
2011,07,24,19,26,23.80
2011,07,24,19,27,23.80
2011,07,24,19,28,23.80
2011,07,24,19,29,23.80
2011,07,24,19,30,23.80
2011,07,24,19,31,23.80
2011,07,24,19,32,23.80
2011,07,24,19,33,23.90
2011,07,24,19,34,23.80
2011,07,24,19,35,23.80
2011,07,24,19,36,23.80
2011,07,24,19,37,23.80
2011,07,24,19,38,23.70
2011,07,24,19,39,23.70
2011,07,24,19,40,23.60
2011,07,24,19,41,23.50
2011,07,24,19,42,23.40
2011,07,24,19,43,23.40
2011,07,24,19,44,23.40
2011,07,24,19,45,23.40
2011,07,24,19,46,23.40
2011,07,24,19,47,23.40
2011,07,24,19,48,23.40
2011,07,24,19,49,23.40
2011,07,24,19,50,23.40
2011,07,24,19,51,23.40
2011,07,24,19,52,23.40
2011,07,24,19,53,23.40
